Time,TemperatureF,DewpointF,PressureIn,WindDirection,WindDirectionDegrees,WindSpeedMPH,WindSpeedGustMPH,Humidity,HourlyPrecipIn,Conditions,Clouds,dailyrainin,SoftwareType,DateUTC
2014-10-21 00:00:00,63.1,58.5,29.99,NNE,13,0.0,0.0,85,0.00,,,0.00,WeatherCatV1.24B11,2014-10-21 05:00:00,
2014-10-21 00:05:00,62.9,58.6,29.99,NNE,13,0.0,0.0,86,0.00,,,0.00,WeatherCatV1.24B11,2014-10-21 05:05:00,
2014-10-21 00:10:00,62.8,58.9,29.99,NNE,13,0.0,0.0,87,0.00,,,0.00,WeatherCatV1.24B11,2014-10-21 05:10:00,
2014-10-21 00:15:00,62.7,58.8,29.99,NNE,13,0.0,0.0,87,0.00,,,0.00,WeatherCatV1.24B11,2014-10-21 05:15:00,
2014-10-21 00:20:00,62.6,58.7,29.99,NNE,13,0.0,0.0,87,0.00,,,0.00,WeatherCatV1.24B11,2014-10-21 05:20:00,
2014-10-21 00:25:00,62.6,58.7,29.99,NNE,13,0.0,0.0,87,0.00,,,0.00,WeatherCatV1.24B11,2014-10-21 05:25:00,
2014-10-21 00:30:00,62.4,58.5,29.99,NNE,13,0.0,0.0,87,0.00,,,0.00,WeatherCatV1.24B11,2014-10-21 05:30:00,
2014-10-21 00:35:00,62.3,58.4,29.99,NNE,13,0.0,0.0,87,0.00,,,0.00,WeatherCatV1.24B11,2014-10-21 05:35:00,
2014-10-21 00:40:00,62.2,58.6,29.99,NNE,13,0.0,0.0,88,0.00,,,0.00,WeatherCatV1.24B11,2014-10-21 05:40:00,
2014-10-21 00:45:00,62.0,58.4,29.98,NNE,13,0.0,0.0,88,0.00,,,0.00,WeatherCatV1.24B11,2014-10-21 05:45:00,
2014-10-21 00:50:00,61.9,58.3,29.98,NNE,13,0.0,0.0,88,0.00,,,0.00,WeatherCatV1.24B11,2014-10-21 05:50:00,
2014-10-21 00:55:00,61.8,58.2,29.98,NNE,13,0.0,0.0,88,0.00,,,0.00,WeatherCatV1.24B11,2014-10-21 05:55:00,
2014-10-21 01:00:00,61.7,58.4,29.99,NNE,13,0.0,0.0,89,0.00,,,0.00,WeatherCatV1.24B11,2014-10-21 06:00:00,
2014-10-21 01:05:00,61.6,58.3,29.98,NNE,13,0.0,0.0,89,0.00,,,0.00,WeatherCatV1.24B11,2014-10-21 06:05:00,
2014-10-21 01:10:00,61.5,58.2,29.98,NNE,13,0.0,0.0,89,0.00,,,0.00,WeatherCatV1.24B11,2014-10-21 06:10:00,
2014-10-21 01:15:00,61.3,57.7,29.98,NNE,13,0.0,0.0,88,0.00,,,0.00,WeatherCatV1.24B11,2014-10-21 06:15:00,
2014-10-21 01:20:00,61.2,57.9,29.98,NNE,13,0.0,0.0,89,0.00,,,0.00,WeatherCatV1.24B11,2014-10-21 06:20:00,
2014-10-21 01:25:00,61.1,57.8,29.98,NNE,13,0.0,0.0,89,0.00,,,0.00,WeatherCatV1.24B11,2014-10-21 06:25:00,
2014-10-21 01:30:00,61.0,57.7,29.99,NNE,13,0.0,0.0,89,0.00,,,0.00,WeatherCatV1.24B11,2014-10-21 06:30:00,
2014-10-21 01:35:00,60.9,57.6,29.99,NNE,13,0.0,0.0,89,0.00,,,0.00,WeatherCatV1.24B11,2014-10-21 06:35:00,
2014-10-21 01:40:00,60.9,57.6,29.99,NNE,13,0.0,0.0,89,0.00,,,0.00,WeatherCatV1.24B11,2014-10-21 06:40:00,
2014-10-21 01:45:00,60.7,57.8,29.99,NNE,13,0.0,0.0,90,0.00,,,0.00,WeatherCatV1.24B11,2014-10-21 06:45:00,
2014-10-21 01:50:00,60.7,58.0,29.99,NNE,13,0.0,0.0,91,0.00,,,0.00,WeatherCatV1.24B11,2014-10-21 06:50:00,
2014-10-21 01:55:00,60.8,58.2,29.99,NNE,13,0.0,0.0,91,0.00,,,0.00,WeatherCatV1.24B11,2014-10-21 06:55:00,
2014-10-21 02:00:00,60.7,58.0,29.99,NNE,13,0.0,0.0,91,0.00,,,0.00,WeatherCatV1.24B11,2014-10-21 07:00:00,
2014-10-21 02:05:00,60.7,58.0,29.99,NNE,13,0.0,0.0,91,0.00,,,0.00,WeatherCatV1.24B11,2014-10-21 07:05:00,
2014-10-21 02:10:00,60.7,58.0,29.99,NNE,13,0.0,0.0,91,0.00,,,0.00,WeatherCatV1.24B11,2014-10-21 07:10:00,
2014-10-21 02:15:00,60.6,58.3,29.99,NNE,13,0.0,0.0,92,0.00,,,0.00,WeatherCatV1.24B11,2014-10-21 07:15:00,
2014-10-21 02:20:00,60.5,58.2,29.99,NNE,13,0.0,0.0,92,0.00,,,0.00,WeatherCatV1.24B11,2014-10-21 07:20:00,
2014-10-21 02:25:00,60.3,58.0,29.99,NNE,13,0.0,0.0,92,0.00,,,0.00,WeatherCatV1.24B11,2014-10-21 07:25:00,
2014-10-21 02:30:00,60.2,57.9,29.99,NNE,13,0.0,0.0,92,0.00,,,0.00,WeatherCatV1.24B11,2014-10-21 07:30:00,
2014-10-21 02:35:00,60.1,57.8,29.99,NNE,13,0.0,0.0,92,0.00,,,0.00,WeatherCatV1.24B11,2014-10-21 07:35:00,
2014-10-21 02:40:00,59.9,57.6,29.99,NNE,13,0.0,0.0,92,0.00,,,0.00,WeatherCatV1.24B11,2014-10-21 07:40:00,
2014-10-21 02:45:00,59.9,57.6,29.99,NNE,13,0.0,0.0,92,0.00,,,0.00,WeatherCatV1.24B11,2014-10-21 07:45:00,
2014-10-21 02:50:00,59.8,57.8,29.98,NNE,13,0.0,0.0,93,0.00,,,0.00,WeatherCatV1.24B11,2014-10-21 07:50:00,
2014-10-21 02:55:00,59.8,57.8,29.98,NNE,13,0.0,0.0,93,0.00,,,0.00,WeatherCatV1.24B11,2014-10-21 07:55:00,
2014-10-21 03:00:00,59.8,58.1,29.98,NNE,13,0.0,0.0,94,0.00,,,0.00,WeatherCatV1.24B11,2014-10-21 08:00:00,
2014-10-21 03:05:00,59.7,57.7,29.98,NNE,13,0.0,0.0,93,0.00,,,0.00,WeatherCatV1.24B11,2014-10-21 08:05:00,
2014-10-21 03:10:00,59.6,57.6,29.98,NNE,13,0.0,0.0,93,0.00,,,0.00,WeatherCatV1.24B11,2014-10-21 08:10:00,
2014-10-21 03:15:00,59.7,58.0,29.98,NNE,13,0.0,0.0,94,0.00,,,0.00,WeatherCatV1.24B11,2014-10-21 08:15:00,
2014-10-21 03:20:00,59.7,58.0,29.98,NNE,13,0.0,0.0,94,0.00,,,0.00,WeatherCatV1.24B11,2014-10-21 08:20:00,
2014-10-21 03:25:00,59.6,57.9,29.98,NNE,13,0.0,0.0,94,0.00,,,0.00,WeatherCatV1.24B11,2014-10-21 08:25:00,
2014-10-21 03:30:00,59.6,57.9,29.98,NNE,13,0.0,0.0,94,0.00,,,0.00,WeatherCatV1.24B11,2014-10-21 08:30:00,
2014-10-21 03:35:00,59.6,58.2,29.98,NNE,13,0.0,0.0,95,0.00,,,0.00,WeatherCatV1.24B11,2014-10-21 08:35:00,
2014-10-21 03:40:00,59.5,57.8,29.98,NNE,13,0.0,0.0,94,0.00,,,0.00,WeatherCatV1.24B11,2014-10-21 08:40:00,
2014-10-21 03:45:00,59.3,57.6,29.98,NNE,13,0.0,0.0,94,0.00,,,0.00,WeatherCatV1.24B11,2014-10-21 08:45:00,
2014-10-21 03:50:00,59.1,57.4,29.98,NNE,13,0.0,0.0,94,0.00,,,0.00,WeatherCatV1.24B11,2014-10-21 08:50:00,
2014-10-21 03:55:00,58.9,57.2,29.98,NNE,13,0.0,0.0,94,0.00,,,0.00,WeatherCatV1.24B11,2014-10-21 08:55:00,
2014-10-21 04:00:00,58.7,57.0,29.98,NNE,13,0.0,0.0,94,0.00,,,0.00,WeatherCatV1.24B11,2014-10-21 09:00:00,
2014-10-21 04:05:00,58.5,56.8,29.98,NNE,13,0.0,0.0,94,0.00,,,0.00,WeatherCatV1.24B11,2014-10-21 09:05:00,
2014-10-21 04:10:00,58.3,56.6,29.98,NNE,13,0.0,0.0,94,0.00,,,0.00,WeatherCatV1.24B11,2014-10-21 09:10:00,
2014-10-21 04:15:00,58.2,56.5,29.98,NNE,13,0.0,0.0,94,0.00,,,0.00,WeatherCatV1.24B11,2014-10-21 09:15:00,
2014-10-21 04:20:00,58.1,56.4,29.98,NNE,13,0.0,0.0,94,0.00,,,0.00,WeatherCatV1.24B11,2014-10-21 09:20:00,
2014-10-21 04:25:00,58.0,56.3,29.98,NNE,13,0.0,0.0,94,0.00,,,0.00,WeatherCatV1.24B11,2014-10-21 09:25:00,
2014-10-21 04:30:00,57.9,56.2,29.98,NNE,13,0.0,0.0,94,0.00,,,0.00,WeatherCatV1.24B11,2014-10-21 09:30:00,
2014-10-21 04:35:00,57.9,56.5,29.99,NNE,13,0.0,0.0,95,0.00,,,0.00,WeatherCatV1.24B11,2014-10-21 09:35:00,
2014-10-21 04:40:00,57.7,56.0,29.99,NNE,13,0.0,0.0,94,0.00,,,0.00,WeatherCatV1.24B11,2014-10-21 09:40:00,
2014-10-21 04:45:00,57.6,55.9,29.99,NNE,13,0.0,0.0,94,0.00,,,0.00,WeatherCatV1.24B11,2014-10-21 09:45:00,
2014-10-21 04:50:00,57.5,55.8,29.99,NNE,13,0.0,0.0,94,0.00,,,0.00,WeatherCatV1.24B11,2014-10-21 09:50:00,
2014-10-21 04:55:00,57.4,55.7,29.99,NNE,13,0.0,0.0,94,0.00,,,0.00,WeatherCatV1.24B11,2014-10-21 09:55:00,
2014-10-21 05:00:00,57.2,55.5,29.99,NNE,13,0.0,0.0,94,0.00,,,0.00,WeatherCatV1.24B11,2014-10-21 10:00:00,
2014-10-21 05:05:00,57.2,55.8,29.99,NNE,13,0.0,0.0,95,0.00,,,0.00,WeatherCatV1.24B11,2014-10-21 10:05:00,
2014-10-21 05:10:00,57.2,55.8,29.99,NNE,13,0.0,0.0,95,0.00,,,0.00,WeatherCatV1.24B11,2014-10-21 10:10:00,
2014-10-21 05:15:00,57.4,56.3,30.00,NNE,13,0.0,0.0,96,0.00,,,0.00,WeatherCatV1.24B11,2014-10-21 10:15:00,
2014-10-21 05:20:00,57.4,56.0,29.99,NNE,13,0.0,0.0,95,0.00,,,0.00,WeatherCatV1.24B11,2014-10-21 10:20:00,
2014-10-21 05:25:00,57.1,55.7,29.99,NNE,13,0.0,0.0,95,0.00,,,0.00,WeatherCatV1.24B11,2014-10-21 10:25:00,
2014-10-21 05:30:00,57.1,55.7,30.00,NNE,13,0.0,0.0,95,0.00,,,0.00,WeatherCatV1.24B11,2014-10-21 10:30:00,
2014-10-21 05:35:00,57.0,55.6,30.00,NNE,13,0.0,0.0,95,0.00,,,0.00,WeatherCatV1.24B11,2014-10-21 10:35:00,
2014-10-21 05:40:00,56.7,55.0,30.00,NNE,13,0.0,0.0,94,0.00,,,0.00,WeatherCatV1.24B11,2014-10-21 10:40:00,
2014-10-21 05:45:00,56.5,55.1,30.00,NNE,13,0.0,0.0,95,0.00,,,0.00,WeatherCatV1.24B11,2014-10-21 10:45:00,
2014-10-21 05:50:00,56.4,55.0,30.00,NNE,13,0.0,0.0,95,0.00,,,0.00,WeatherCatV1.24B11,2014-10-21 10:50:00,
2014-10-21 05:55:00,56.3,54.9,30.00,NNE,13,0.0,0.0,95,0.00,,,0.00,WeatherCatV1.24B11,2014-10-21 10:55:00,
2014-10-21 06:00:00,56.2,54.8,30.00,NNE,13,0.0,0.0,95,0.00,,,0.00,WeatherCatV1.24B11,2014-10-21 11:00:00,
2014-10-21 06:05:00,56.3,54.9,30.00,NNE,13,0.0,0.0,95,0.00,,,0.00,WeatherCatV1.24B11,2014-10-21 11:05:00,
2014-10-21 06:10:00,56.5,55.4,30.00,NNE,13,0.0,0.0,96,0.00,,,0.00,WeatherCatV1.24B11,2014-10-21 11:10:00,
2014-10-21 06:15:00,56.7,55.6,30.00,NNE,13,0.0,0.0,96,0.00,,,0.00,WeatherCatV1.24B11,2014-10-21 11:15:00,
2014-10-21 06:20:00,56.9,55.8,30.00,NNE,13,0.0,0.0,96,0.00,,,0.00,WeatherCatV1.24B11,2014-10-21 11:20:00,
2014-10-21 06:25:00,56.8,55.7,30.00,NNE,13,0.0,0.0,96,0.00,,,0.00,WeatherCatV1.24B11,2014-10-21 11:25:00,